{"data":{"norad_id":64013,"intl_designator":"2025-101V","name":"STARLINK-34182","alt_names":[],"object_type":"PAYLOAD","status":"ACTIVE","operator":null,"country":"US","launch_date":"2025-05-14","launch_site_code":"AFETR","launch_vehicle":null,"mission":null,"orbit_class":"UNKNOWN","rcs_meters":null,"size_class":null,"mass_kg":null,"dimensions":null,"purposes":["comms"],"wikipedia_slug":null,"has_3d_model":false,"image_url":null,"decayed_at":null,"tle_current":{"epoch":"2026-09-20T21:07:04.859904Z","epoch_age_seconds":110759,"freshness":"FRESH","line1":"1 64013U 25101V   26263.87991736  .00010317  00000+0  38372-3 0  9999","line2":"2 64013  42.9979 332.4573 0002353 276.5956  83.4628 15.27596862 76944","mean_motion":15.27596862,"eccentricity":0.0002353,"inclination_deg":42.9979,"raan_deg":332.4573,"arg_perigee_deg":276.5956,"mean_anomaly_deg":83.4628,"bstar":0.00038372,"rev_number":7694,"period_min":94.26570817347,"perigee_km":481.38418040202,"apogee_km":484.61303081802,"semimajor_km":6861.13560561,"source":"CELESTRAK","updated_at":"2026-09-21T09:00:35.183793Z"}}}